Time,TemperatureF,DewpointF,PressureIn,WindDirection,WindDirectionDegrees,WindSpeedMPH,WindSpeedGustMPH,Humidity,HourlyPrecipIn,Conditions,Clouds,dailyrainin,SolarRadiationWatts/m^2,SoftwareType,DateUTC
2013-04-03 00:00:00,46.2,26.4,29.85,WSW,249,8.0,-999.0,45,-99.99,,,0.00,0.0,cwc,2013-04-03 06:00:00,
2013-04-03 00:05:00,46.1,26.3,29.85,SW,227,7.0,-999.0,45,-99.99,,,0.00,0.0,cwc,2013-04-03 06:05:00,
2013-04-03 00:10:00,45.8,26.4,29.85,SW,234,8.0,-999.0,46,-99.99,,,0.00,0.0,cwc,2013-04-03 06:10:00,
2013-04-03 00:15:00,45.5,26.4,29.85,SW,219,10.0,-999.0,47,-99.99,,,0.00,0.0,cwc,2013-04-03 06:15:00,
2013-04-03 00:20:00,45.4,26.7,29.85,SW,227,8.0,-999.0,48,-99.99,,,0.00,0.0,cwc,2013-04-03 06:20:00,
2013-04-03 00:25:00,45.2,26.5,29.85,SW,233,9.0,-999.0,48,-99.99,,,0.00,0.0,cwc,2013-04-03 06:25:00,
2013-04-03 00:30:00,45.0,26.3,29.85,SW,216,8.0,-999.0,48,-99.99,,,0.00,0.0,cwc,2013-04-03 06:30:00,
2013-04-03 00:35:00,44.8,26.4,29.85,SW,229,6.0,-999.0,49,-99.99,,,0.00,0.0,cwc,2013-04-03 06:35:00,
2013-04-03 00:40:00,44.8,26.4,29.85,SW,235,6.0,-999.0,49,-99.99,,,0.00,0.0,cwc,2013-04-03 06:40:00,
2013-04-03 00:45:00,44.8,26.4,29.86,WSW,242,7.0,-999.0,49,-99.99,,,0.00,0.0,cwc,2013-04-03 06:45:00,
2013-04-03 00:50:00,44.8,26.4,29.86,SW,224,5.0,-999.0,49,-99.99,,,0.00,0.0,cwc,2013-04-03 06:50:00,
2013-04-03 00:55:00,44.8,26.4,29.86,SW,229,4.0,-999.0,49,-99.99,,,0.00,0.0,cwc,2013-04-03 06:55:00,
2013-04-03 01:00:00,44.7,26.7,29.86,SW,219,7.0,-999.0,50,-99.99,,,0.00,0.0,cwc,2013-04-03 07:00:00,
2013-04-03 01:05:00,44.5,26.5,29.86,SSW,211,2.0,-999.0,50,-99.99,,,0.00,0.0,cwc,2013-04-03 07:05:00,
2013-04-03 01:10:00,44.3,26.7,29.86,SSW,211,0.0,-999.0,51,-99.99,,,0.00,0.0,cwc,2013-04-03 07:10:00,
2013-04-03 01:15:00,44.1,26.5,29.87,SSW,211,0.0,-999.0,51,-99.99,,,0.00,0.0,cwc,2013-04-03 07:15:00,
2013-04-03 01:20:00,43.7,26.4,29.87,SSW,208,5.0,-999.0,52,-99.99,,,0.00,0.0,cwc,2013-04-03 07:20:00,
2013-04-03 01:25:00,43.4,26.5,29.87,SSW,205,3.0,-999.0,53,-99.99,,,0.00,0.0,cwc,2013-04-03 07:25:00,
2013-04-03 01:30:00,43.2,26.6,29.87,SSW,209,3.0,-999.0,54,-99.99,,,0.00,0.0,cwc,2013-04-03 07:30:00,
2013-04-03 01:35:00,42.9,26.3,29.87,SSW,208,0.0,-999.0,54,-99.99,,,0.00,0.0,cwc,2013-04-03 07:35:00,
2013-04-03 01:40:00,42.8,26.6,29.87,SW,219,0.0,-999.0,55,-99.99,,,0.00,0.0,cwc,2013-04-03 07:40:00,
2013-04-03 01:45:00,42.7,26.5,29.87,SW,219,0.0,-999.0,55,-99.99,,,0.00,0.0,cwc,2013-04-03 07:45:00,
2013-04-03 01:50:00,42.6,26.4,29.87,SW,219,2.0,-999.0,55,-99.99,,,0.00,0.0,cwc,2013-04-03 07:50:00,
2013-04-03 01:55:00,42.3,26.5,29.87,SW,219,3.0,-999.0,56,-99.99,,,0.00,0.0,cwc,2013-04-03 07:55:00,
2013-04-03 02:00:00,42.0,26.5,29.87,SW,219,4.0,-999.0,57,-99.99,,,0.00,0.0,cwc,2013-04-03 08:00:00,
2013-04-03 02:05:00,41.8,26.7,29.87,SW,214,6.0,-999.0,58,-99.99,,,0.00,0.0,cwc,2013-04-03 08:05:00,
2013-04-03 02:10:00,41.6,26.5,29.87,SSW,211,4.0,-999.0,58,-99.99,,,0.00,0.0,cwc,2013-04-03 08:10:00,
2013-04-03 02:15:00,41.4,26.6,29.88,SSW,195,6.0,-999.0,59,-99.99,,,0.00,0.0,cwc,2013-04-03 08:15:00,
2013-04-03 02:20:00,41.2,26.4,29.88,SSW,196,3.0,-999.0,59,-99.99,,,0.00,0.0,cwc,2013-04-03 08:20:00,
2013-04-03 02:25:00,41.0,26.6,29.89,SSW,196,3.0,-999.0,60,-99.99,,,0.00,0.0,cwc,2013-04-03 08:25:00,
2013-04-03 02:30:00,40.9,26.5,29.89,WNW,295,3.0,-999.0,60,-99.99,,,0.00,0.0,cwc,2013-04-03 08:30:00,
2013-04-03 02:35:00,40.9,26.5,29.89,WNW,295,0.0,-999.0,60,-99.99,,,0.00,0.0,cwc,2013-04-03 08:35:00,
2013-04-03 02:40:00,40.6,26.2,29.89,WNW,295,0.0,-999.0,60,-99.99,,,0.00,0.0,cwc,2013-04-03 08:40:00,
2013-04-03 02:45:00,40.2,26.2,29.89,WNW,294,2.0,-999.0,61,-99.99,,,0.00,0.0,cwc,2013-04-03 08:45:00,
2013-04-03 02:50:00,39.9,26.2,29.89,WNW,294,0.0,-999.0,62,-99.99,,,0.00,0.0,cwc,2013-04-03 08:50:00,
2013-04-03 02:55:00,39.6,25.9,29.90,WSW,251,1.0,-999.0,62,-99.99,,,0.00,0.0,cwc,2013-04-03 08:55:00,
2013-04-03 03:00:00,39.5,25.8,29.90,WSW,250,0.0,-999.0,62,-99.99,,,0.00,0.0,cwc,2013-04-03 09:00:00,
2013-04-03 03:05:00,39.3,26.0,29.90,WSW,244,0.0,-999.0,63,-99.99,,,0.00,0.0,cwc,2013-04-03 09:05:00,
2013-04-03 03:10:00,39.2,25.9,29.90,WSW,242,0.0,-999.0,63,-99.99,,,0.00,0.0,cwc,2013-04-03 09:10:00,
2013-04-03 03:15:00,39.0,26.0,29.90,WSW,242,0.0,-999.0,64,-99.99,,,0.00,0.0,cwc,2013-04-03 09:15:00,
2013-04-03 03:25:00,38.6,25.6,29.90,WSW,241,1.0,-999.0,64,-99.99,,,0.00,0.0,cwc,2013-04-03 09:25:00,
2013-04-03 03:30:00,38.4,25.8,29.89,SW,221,2.0,-999.0,65,-99.99,,,0.00,0.0,cwc,2013-04-03 09:30:00,
2013-04-03 03:40:00,38.3,25.7,29.90,SSW,213,0.0,-999.0,65,-99.99,,,0.00,0.0,cwc,2013-04-03 09:40:00,
2013-04-03 03:45:00,38.3,25.7,29.90,SSW,213,2.0,-999.0,65,-99.99,,,0.00,0.0,cwc,2013-04-03 09:45:00,
2013-04-03 03:50:00,38.3,25.7,29.90,SSW,213,0.0,-999.0,65,-99.99,,,0.00,0.0,cwc,2013-04-03 09:50:00,
2013-04-03 03:55:00,38.2,25.6,29.90,SSW,213,0.0,-999.0,65,-99.99,,,0.00,0.0,cwc,2013-04-03 09:55:00,
2013-04-03 04:00:00,38.0,25.4,29.90,SSW,213,2.0,-999.0,65,-99.99,,,0.00,0.0,cwc,2013-04-03 10:00:00,
2013-04-03 04:05:00,37.9,25.3,29.90,SSW,213,0.0,-999.0,65,-99.99,,,0.00,0.0,cwc,2013-04-03 10:05:00,
2013-04-03 04:10:00,37.6,25.0,29.90,SSW,213,2.0,-999.0,65,-99.99,,,0.00,0.0,cwc,2013-04-03 10:10:00,
2013-04-03 04:15:00,37.5,25.3,29.90,SSW,213,5.0,-999.0,66,-99.99,,,0.00,0.0,cwc,2013-04-03 10:15:00,
2013-04-03 04:20:00,37.6,25.4,29.90,SW,217,4.0,-999.0,66,-99.99,,,0.00,0.0,cwc,2013-04-03 10:20:00,
2013-04-03 04:25:00,37.6,25.4,29.91,SW,216,2.0,-999.0,66,-99.99,,,0.00,0.0,cwc,2013-04-03 10:25:00,
2013-04-03 04:30:00,37.6,25.0,29.91,SW,216,0.0,-999.0,65,-99.99,,,0.00,0.0,cwc,2013-04-03 10:30:00,
2013-04-03 04:35:00,37.4,24.1,29.91,SW,215,0.0,-999.0,63,-99.99,,,0.00,0.0,cwc,2013-04-03 10:35:00,
2013-04-03 04:40:00,37.0,23.7,29.91,SW,216,0.0,-999.0,63,-99.99,,,0.00,0.0,cwc,2013-04-03 10:40:00,
2013-04-03 04:45:00,36.4,23.1,29.92,SW,216,0.0,-999.0,63,-99.99,,,0.00,0.0,cwc,2013-04-03 10:45:00,
2013-04-03 04:50:00,35.6,22.6,29.92,SW,216,0.0,-999.0,64,-99.99,,,0.00,0.0,cwc,2013-04-03 10:50:00,
2013-04-03 04:55:00,35.0,23.1,29.92,SW,215,1.0,-999.0,67,-99.99,,,0.00,0.0,cwc,2013-04-03 10:55:00,
2013-04-03 05:00:00,34.6,23.4,29.92,SW,216,0.0,-999.0,69,-99.99,,,0.00,0.0,cwc,2013-04-03 11:00:00,
2013-04-03 05:05:00,34.4,22.9,29.93,SW,216,1.0,-999.0,68,-99.99,,,0.00,0.0,cwc,2013-04-03 11:05:00,
2013-04-03 05:10:00,34.2,22.3,29.93,SW,215,0.0,-999.0,67,-99.99,,,0.00,0.0,cwc,2013-04-03 11:10:00,
2013-04-03 05:15:00,33.5,22.3,29.93,SW,215,1.0,-999.0,69,-99.99,,,0.00,0.0,cwc,2013-04-03 11:15:00,
2013-04-03 05:20:00,33.1,21.9,29.93,SW,216,0.0,-999.0,69,-99.99,,,0.00,0.0,cwc,2013-04-03 11:20:00,
2013-04-03 05:25:00,32.8,22.0,29.93,SW,216,0.0,-999.0,70,-99.99,,,0.00,0.0,cwc,2013-04-03 11:25:00,
2013-04-03 05:30:00,32.5,21.7,29.94,SW,216,2.0,-999.0,70,-99.99,,,0.00,0.0,cwc,2013-04-03 11:30:00,
2013-04-03 05:40:00,31.9,21.8,29.94,SW,216,0.0,-999.0,72,-99.99,,,0.00,0.0,cwc,2013-04-03 11:40:00,
2013-04-03 05:45:00,31.8,21.7,29.94,SW,215,0.0,-999.0,72,-99.99,,,0.00,0.0,cwc,2013-04-03 11:45:00,
2013-04-03 05:50:00,31.7,21.6,29.94,SW,215,1.0,-999.0,72,-99.99,,,0.00,0.0,cwc,2013-04-03 11:50:00,
2013-04-03 05:55:00,31.6,21.2,29.95,SW,216,0.0,-999.0,71,-99.99,,,0.00,0.0,cwc,2013-04-03 11:55:00,
2013-04-03 06:00:00,31.4,21.0,29.95,SW,215,0.0,-999.0,71,-99.99,,,0.00,0.0,cwc,2013-04-03 12:00:00,
2013-04-03 06:05:00,31.0,20.9,29.95,SW,216,2.0,-999.0,72,-99.99,,,0.00,0.0,cwc,2013-04-03 12:05:00,
2013-04-03 06:10:00,30.6,20.9,29.95,SW,215,0.0,-999.0,73,-99.99,,,0.00,0.0,cwc,2013-04-03 12:10:00,
2013-04-03 06:15:00,30.5,21.1,29.95,SW,216,0.0,-999.0,74,-99.99,,,0.00,0.0,cwc,2013-04-03 12:15:00,
2013-04-03 06:20:00,30.4,21.0,29.96,SW,216,3.0,-999.0,74,-99.99,,,0.00,0.0,cwc,2013-04-03 12:20:00,
2013-04-03 06:25:00,30.4,21.0,29.96,SW,216,0.0,-999.0,74,-99.99,,,0.00,0.0,cwc,2013-04-03 12:25:00,
2013-04-03 06:30:00,30.4,20.7,29.96,SW,215,2.0,-999.0,73,-99.99,,,0.00,0.0,cwc,2013-04-03 12:30:00,
2013-04-03 06:35:00,30.6,20.9,29.96,SW,216,2.0,-999.0,73,-99.99,,,0.00,0.0,cwc,2013-04-03 12:35:00,
2013-04-03 06:40:00,30.8,21.1,29.97,SW,216,0.0,-999.0,73,-99.99,,,0.00,0.0,cwc,2013-04-03 12:40:00,
2013-04-03 06:45:00,30.8,20.7,29.97,SW,216,1.0,-999.0,72,-99.99,,,0.00,5.0,cwc,2013-04-03 12:45:00,
2013-04-03 06:50:00,30.7,21.0,29.97,SW,215,0.0,-999.0,73,-99.99,,,0.00,12.0,cwc,2013-04-03 12:50:00,
2013-04-03 06:55:00,30.6,20.9,29.97,SW,216,0.0,-999.0,73,-99.99,,,0.00,23.0,cwc,2013-04-03 12:55:00,
2013-04-03 07:00:00,30.5,20.4,29.97,SW,215,0.0,-999.0,72,-99.99,,,0.00,30.0,cwc,2013-04-03 13:00:00,
2013-04-03 07:05:00,30.3,20.6,29.98,SW,215,0.0,-999.0,73,-99.99,,,0.00,32.0,cwc,2013-04-03 13:05:00,
2013-04-03 07:10:00,30.3,20.9,29.98,SW,216,0.0,-999.0,74,-99.99,,,0.00,39.0,cwc,2013-04-03 13:10:00,
2013-04-03 07:15:00,30.4,21.0,29.98,SW,216,0.0,-999.0,74,-99.99,,,0.00,47.0,cwc,2013-04-03 13:15:00,
2013-04-03 07:20:00,30.5,21.1,29.99,SW,216,0.0,-999.0,74,-99.99,,,0.00,56.0,cwc,2013-04-03 13:20:00,
2013-04-03 07:25:00,30.7,21.3,29.99,SW,215,0.0,-999.0,74,-99.99,,,0.00,49.0,cwc,2013-04-03 13:25:00,
2013-04-03 07:30:00,30.9,21.5,29.99,SW,216,0.0,-999.0,74,-99.99,,,0.00,44.0,cwc,2013-04-03 13:30:00,
2013-04-03 07:35:00,31.2,21.8,29.99,SW,216,0.0,-999.0,74,-99.99,,,0.00,40.0,cwc,2013-04-03 13:35:00,
2013-04-03 07:40:00,31.3,21.6,29.99,SW,216,0.0,-999.0,73,-99.99,,,0.00,37.0,cwc,2013-04-03 13:40:00,
2013-04-03 07:45:00,31.4,21.3,29.99,SW,215,0.0,-999.0,72,-99.99,,,0.00,46.0,cwc,2013-04-03 13:45:00,
2013-04-03 07:50:00,31.6,21.5,29.99,SW,216,0.0,-999.0,72,-99.99,,,0.00,65.0,cwc,2013-04-03 13:50:00,
2013-04-03 08:00:00,32.1,22.4,29.99,SW,215,0.0,-999.0,73,-99.99,,,0.00,174.0,cwc,2013-04-03 14:00:00,
2013-04-03 08:05:00,32.7,22.6,29.99,SW,216,0.0,-999.0,72,-99.99,,,0.00,214.0,cwc,2013-04-03 14:05:00,
2013-04-03 08:10:00,33.4,23.3,29.99,SW,216,0.0,-999.0,72,-99.99,,,0.00,206.0,cwc,2013-04-03 14:10:00,
2013-04-03 08:15:00,34.3,23.5,29.99,SW,216,0.0,-999.0,70,-99.99,,,0.00,135.0,cwc,2013-04-03 14:15:00,
2013-04-03 08:20:00,34.8,23.3,29.99,SW,215,0.0,-999.0,68,-99.99,,,0.00,127.0,cwc,2013-04-03 14:20:00,
2013-04-03 08:25:00,35.4,23.2,29.99,SW,216,1.0,-999.0,66,-99.99,,,0.00,137.0,cwc,2013-04-03 14:25:00,
2013-04-03 08:30:00,35.9,23.3,30.00,SW,216,1.0,-999.0,65,-99.99,,,0.00,229.0,cwc,2013-04-03 14:30:00,
2013-04-03 08:35:00,36.4,23.8,30.00,SW,217,3.0,-999.0,65,-99.99,,,0.00,229.0,cwc,2013-04-03 14:35:00,
2013-04-03 08:40:00,37.1,24.1,30.00,SW,215,0.0,-999.0,64,-99.99,,,0.00,239.0,cwc,2013-04-03 14:40:00,
2013-04-03 08:45:00,37.7,24.7,29.99,SW,216,4.0,-999.0,64,-99.99,,,0.00,244.0,cwc,2013-04-03 14:45:00,
2013-04-03 08:50:00,38.4,25.1,30.00,SW,216,0.0,-999.0,63,-99.99,,,0.00,417.0,cwc,2013-04-03 14:50:00,
2013-04-03 08:55:00,39.4,25.7,30.00,SSW,209,2.0,-999.0,62,-99.99,,,0.00,422.0,cwc,2013-04-03 14:55:00,
2013-04-03 09:00:00,40.3,26.3,30.00,SSW,200,3.0,-999.0,61,-99.99,,,0.00,434.0,cwc,2013-04-03 15:00:00,
2013-04-03 09:05:00,41.0,26.6,30.00,SSW,200,0.0,-999.0,60,-99.99,,,0.00,448.0,cwc,2013-04-03 15:05:00,
2013-04-03 09:10:00,41.7,26.6,30.00,ENE,69,3.0,-999.0,58,-99.99,,,0.00,462.0,cwc,2013-04-03 15:10:00,
2013-04-03 09:15:00,42.4,27.3,30.00,ENE,69,2.0,-999.0,58,-99.99,,,0.00,483.0,cwc,2013-04-03 15:15:00,
2013-04-03 09:20:00,43.3,27.8,30.00,ENE,69,0.0,-999.0,57,-99.99,,,0.00,501.0,cwc,2013-04-03 15:20:00,
2013-04-03 09:25:00,44.1,27.5,30.00,NE,53,4.0,-999.0,54,-99.99,,,0.00,519.0,cwc,2013-04-03 15:25:00,
2013-04-03 09:30:00,44.1,27.5,30.00,NE,53,0.0,-999.0,54,-99.99,,,0.00,534.0,cwc,2013-04-03 15:30:00,
2013-04-03 09:35:00,44.5,27.9,30.00,NE,44,3.0,-999.0,54,-99.99,,,0.00,554.0,cwc,2013-04-03 15:35:00,
2013-04-03 09:40:00,44.8,28.2,30.00,NE,44,0.0,-999.0,54,-99.99,,,0.00,571.0,cwc,2013-04-03 15:40:00,
2013-04-03 09:45:00,45.5,28.6,29.99,NE,46,0.0,-999.0,53,-99.99,,,0.00,585.0,cwc,2013-04-03 15:45:00,
2013-04-03 09:50:00,46.3,29.0,29.99,NE,46,2.0,-999.0,52,-99.99,,,0.00,601.0,cwc,2013-04-03 15:50:00,
2013-04-03 09:55:00,47.1,29.1,29.99,NE,46,1.0,-999.0,50,-99.99,,,0.00,617.0,cwc,2013-04-03 15:55:00,
2013-04-03 10:05:00,48.3,29.9,29.99,NE,50,0.0,-999.0,49,-99.99,,,0.00,647.0,cwc,2013-04-03 16:05:00,
2013-04-03 10:15:00,49.2,30.1,29.99,NE,49,2.0,-999.0,47,-99.99,,,0.00,598.0,cwc,2013-04-03 16:15:00,
2013-04-03 10:20:00,49.2,30.1,29.99,NE,50,3.0,-999.0,47,-99.99,,,0.00,700.0,cwc,2013-04-03 16:20:00,
2013-04-03 10:25:00,49.5,30.1,29.99,NE,49,0.0,-999.0,46,-99.99,,,0.00,719.0,cwc,2013-04-03 16:25:00,
2013-04-03 10:30:00,50.0,30.6,29.99,NE,51,0.0,-999.0,46,-99.99,,,0.00,754.0,cwc,2013-04-03 16:30:00,
2013-04-03 10:35:00,50.5,30.7,29.99,NE,48,2.0,-999.0,45,-99.99,,,0.00,758.0,cwc,2013-04-03 16:35:00,
2013-04-03 10:40:00,50.5,30.7,29.99,NE,48,0.0,-999.0,45,-99.99,,,0.00,775.0,cwc,2013-04-03 16:40:00,
2013-04-03 10:50:00,50.2,30.4,29.99,ENE,67,0.0,-999.0,45,-99.99,,,0.00,865.0,cwc,2013-04-03 16:50:00,
2013-04-03 10:55:00,50.3,30.9,29.99,ENE,72,0.0,-999.0,46,-99.99,,,0.00,846.0,cwc,2013-04-03 16:55:00,
2013-04-03 11:00:00,50.8,30.6,29.99,ENE,77,7.0,-999.0,44,-99.99,,,0.00,851.0,cwc,2013-04-03 17:00:00,
2013-04-03 11:05:00,50.9,30.7,29.99,ESE,114,2.0,-999.0,44,-99.99,,,0.00,933.0,cwc,2013-04-03 17:05:00,
2013-04-03 11:10:00,51.3,30.8,29.99,ESE,113,0.0,-999.0,43,-99.99,,,0.00,336.0,cwc,2013-04-03 17:10:00,
2013-04-03 11:20:00,51.8,31.3,29.98,NNE,33,4.0,-999.0,43,-99.99,,,0.00,334.0,cwc,2013-04-03 17:20:00,
2013-04-03 11:25:00,52.0,30.8,29.98,NNE,33,2.0,-999.0,41,-99.99,,,0.00,334.0,cwc,2013-04-03 17:25:00,
2013-04-03 11:30:00,52.3,31.1,29.98,NW,316,0.0,-999.0,41,-99.99,,,0.00,434.0,cwc,2013-04-03 17:30:00,
2013-04-03 11:35:00,52.4,30.8,29.97,NW,316,0.0,-999.0,40,-99.99,,,0.00,243.0,cwc,2013-04-03 17:35:00,
2013-04-03 11:40:00,52.2,30.2,29.97,NNW,333,3.0,-999.0,39,-99.99,,,0.00,322.0,cwc,2013-04-03 17:40:00,
2013-04-03 11:45:00,51.5,29.9,29.97,NNW,336,3.0,-999.0,40,-99.99,,,0.00,789.0,cwc,2013-04-03 17:45:00,
2013-04-03 11:55:00,51.4,29.8,29.97,North,5,3.0,-999.0,40,-99.99,,,0.00,352.0,cwc,2013-04-03 17:55:00,
2013-04-03 12:00:00,51.4,30.2,29.97,NE,55,1.0,-999.0,41,-99.99,,,0.00,459.0,cwc,2013-04-03 18:00:00,
2013-04-03 12:05:00,51.6,30.0,29.97,ENE,57,2.0,-999.0,40,-99.99,,,0.00,272.0,cwc,2013-04-03 18:05:00,
2013-04-03 12:10:00,51.6,30.0,29.97,ENE,58,4.0,-999.0,40,-99.99,,,0.00,387.0,cwc,2013-04-03 18:10:00,
2013-04-03 12:15:00,52.0,30.8,29.97,NE,55,2.0,-999.0,41,-99.99,,,0.00,596.0,cwc,2013-04-03 18:15:00,
2013-04-03 12:25:00,52.3,31.1,29.96,SSE,148,4.0,-999.0,41,-99.99,,,0.00,341.0,cwc,2013-04-03 18:25:00,
2013-04-03 12:30:00,52.3,30.7,29.96,NE,40,3.0,-999.0,40,-99.99,,,0.00,299.0,cwc,2013-04-03 18:30:00,
2013-04-03 12:35:00,52.1,30.5,29.96,NE,40,2.0,-999.0,40,-99.99,,,0.00,417.0,cwc,2013-04-03 18:35:00,
2013-04-03 12:40:00,52.1,30.5,29.96,NNE,15,0.0,-999.0,40,-99.99,,,0.00,417.0,cwc,2013-04-03 18:40:00,
2013-04-03 12:45:00,52.4,30.8,29.95,NNE,16,2.0,-999.0,40,-99.99,,,0.00,392.0,cwc,2013-04-03 18:45:00,
2013-04-03 12:50:00,52.8,30.8,29.95,SSE,163,3.0,-999.0,39,-99.99,,,0.00,524.0,cwc,2013-04-03 18:50:00,
2013-04-03 12:55:00,53.1,31.1,29.95,SW,222,5.0,-999.0,39,-99.99,,,0.00,939.0,cwc,2013-04-03 18:55:00,
2013-04-03 13:00:00,53.2,30.9,29.95,South,187,1.0,-999.0,38,-99.99,,,0.00,1021.0,cwc,2013-04-03 19:00:00,
2013-04-03 13:05:00,53.5,31.2,29.95,SSE,156,0.0,-999.0,38,-99.99,,,0.00,1000.0,cwc,2013-04-03 19:05:00,
2013-04-03 13:10:00,54.1,31.4,29.95,SE,139,2.0,-999.0,37,-99.99,,,0.00,979.0,cwc,2013-04-03 19:10:00,
2013-04-03 13:15:00,54.9,32.6,29.95,SE,139,2.0,-999.0,38,-99.99,,,0.00,1030.0,cwc,2013-04-03 19:15:00,
2013-04-03 13:25:00,55.9,32.5,29.95,NE,40,12.0,-999.0,35,-99.99,,,0.00,1194.0,cwc,2013-04-03 19:25:00,
2013-04-03 13:30:00,55.4,32.0,29.94,NE,34,1.0,-999.0,35,-99.99,,,0.00,302.0,cwc,2013-04-03 19:30:00,
2013-04-03 13:35:00,55.7,32.3,29.94,NNE,17,0.0,-999.0,35,-99.99,,,0.00,302.0,cwc,2013-04-03 19:35:00,
2013-04-03 13:40:00,55.9,32.1,29.94,East,96,2.0,-999.0,34,-99.99,,,0.00,418.0,cwc,2013-04-03 19:40:00,
2013-04-03 13:45:00,55.8,32.0,29.94,ENE,60,0.0,-999.0,34,-99.99,,,0.00,418.0,cwc,2013-04-03 19:45:00,
2013-04-03 13:50:00,56.1,32.7,29.94,North,10,7.0,-999.0,35,-99.99,,,0.00,1076.0,cwc,2013-04-03 19:50:00,
2013-04-03 13:55:00,55.9,32.1,29.94,NNE,17,0.0,-999.0,34,-99.99,,,0.00,290.0,cwc,2013-04-03 19:55:00,
2013-04-03 14:00:00,55.9,32.5,29.94,ESE,103,2.0,-999.0,35,-99.99,,,0.00,457.0,cwc,2013-04-03 20:00:00,
2013-04-03 14:05:00,56.0,32.6,29.94,NE,36,6.0,-999.0,35,-99.99,,,0.00,457.0,cwc,2013-04-03 20:05:00,
2013-04-03 14:10:00,56.4,32.6,29.94,North,355,6.0,-999.0,34,-99.99,,,0.00,1102.0,cwc,2013-04-03 20:10:00,
2013-04-03 14:15:00,56.7,32.9,29.94,East,91,1.0,-999.0,34,-99.99,,,0.00,1042.0,cwc,2013-04-03 20:15:00,
2013-04-03 14:20:00,57.5,33.4,29.93,NNE,31,11.0,-999.0,33,-99.99,,,0.00,937.0,cwc,2013-04-03 20:20:00,
2013-04-03 14:25:00,57.3,33.2,29.93,ENE,60,5.0,-999.0,33,-99.99,,,0.00,911.0,cwc,2013-04-03 20:25:00,
2013-04-03 14:30:00,57.1,33.0,29.93,NE,39,6.0,-999.0,33,-99.99,,,0.00,907.0,cwc,2013-04-03 20:30:00,
2013-04-03 14:35:00,56.2,32.4,29.93,NNE,29,4.0,-999.0,34,-99.99,,,0.00,988.0,cwc,2013-04-03 20:35:00,
2013-04-03 14:40:00,56.1,32.7,29.94,NE,53,0.0,-999.0,35,-99.99,,,0.00,988.0,cwc,2013-04-03 20:40:00,
2013-04-03 14:45:00,56.3,32.9,29.94,North,350,8.0,-999.0,35,-99.99,,,0.00,297.0,cwc,2013-04-03 20:45:00,
2013-04-03 14:50:00,56.2,32.8,29.94,NNE,33,2.0,-999.0,35,-99.99,,,0.00,251.0,cwc,2013-04-03 20:50:00,
2013-04-03 14:55:00,56.1,32.7,29.94,NE,38,3.0,-999.0,35,-99.99,,,0.00,195.0,cwc,2013-04-03 20:55:00,
2013-04-03 15:00:00,56.2,32.4,29.94,NE,38,0.0,-999.0,34,-99.99,,,0.00,206.0,cwc,2013-04-03 21:00:00,
2013-04-03 15:10:00,57.3,33.5,29.94,SSW,198,7.0,-999.0,34,-99.99,,,0.00,939.0,cwc,2013-04-03 21:10:00,
2013-04-03 15:15:00,57.9,33.8,29.94,WSW,239,10.0,-999.0,33,-99.99,,,0.00,308.0,cwc,2013-04-03 21:15:00,
2013-04-03 15:20:00,57.8,33.7,29.94,SW,236,4.0,-999.0,33,-99.99,,,0.00,789.0,cwc,2013-04-03 21:20:00,
2013-04-03 15:25:00,57.5,33.4,29.93,North,360,4.0,-999.0,33,-99.99,,,0.00,888.0,cwc,2013-04-03 21:25:00,
2013-04-03 15:30:00,57.1,33.0,29.93,WSW,238,3.0,-999.0,33,-99.99,,,0.00,207.0,cwc,2013-04-03 21:30:00,
2013-04-03 15:35:00,56.3,32.5,29.93,WSW,238,3.0,-999.0,34,-99.99,,,0.00,116.0,cwc,2013-04-03 21:35:00,
2013-04-03 15:40:00,55.8,32.4,29.94,WSW,238,0.0,-999.0,35,-99.99,,,0.00,97.0,cwc,2013-04-03 21:40:00,
2013-04-03 15:45:00,55.4,32.4,29.94,SW,233,1.0,-999.0,36,-99.99,,,0.00,69.0,cwc,2013-04-03 21:45:00,
2013-04-03 15:50:00,54.7,32.0,29.95,SW,232,5.0,-999.0,37,-99.99,,,0.00,127.0,cwc,2013-04-03 21:50:00,
2013-04-03 15:55:00,54.1,33.9,29.95,SW,229,5.0,-999.0,44,-99.99,,,0.00,246.0,cwc,2013-04-03 21:55:00,
2013-04-03 16:00:00,53.7,32.8,29.94,SW,236,10.0,-999.0,42,-99.99,,,0.00,294.0,cwc,2013-04-03 22:00:00,
2013-04-03 16:05:00,54.0,32.0,29.94,SW,232,5.0,-999.0,39,-99.99,,,0.00,861.0,cwc,2013-04-03 22:05:00,
2013-04-03 16:10:00,55.2,32.5,29.94,SSE,162,0.0,-999.0,37,-99.99,,,0.00,710.0,cwc,2013-04-03 22:10:00,
2013-04-03 16:15:00,56.2,33.2,29.94,NE,55,0.0,-999.0,36,-99.99,,,0.00,631.0,cwc,2013-04-03 22:15:00,
2013-04-03 16:20:00,57.0,34.0,29.94,South,171,5.0,-999.0,36,-99.99,,,0.00,649.0,cwc,2013-04-03 22:20:00,
2013-04-03 16:25:00,57.8,33.7,29.94,NNE,32,0.0,-999.0,33,-99.99,,,0.00,671.0,cwc,2013-04-03 22:25:00,
2013-04-03 16:30:00,58.0,33.2,29.94,SW,216,2.0,-999.0,31,-99.99,,,0.00,478.0,cwc,2013-04-03 22:30:00,
2013-04-03 16:35:00,57.4,32.9,29.94,NNE,15,4.0,-999.0,32,-99.99,,,0.00,158.0,cwc,2013-04-03 22:35:00,
2013-04-03 16:40:00,56.8,32.7,29.94,NNE,15,0.0,-999.0,33,-99.99,,,0.00,306.0,cwc,2013-04-03 22:40:00,
2013-04-03 16:45:00,56.7,32.6,29.94,NNE,14,0.0,-999.0,33,-99.99,,,0.00,489.0,cwc,2013-04-03 22:45:00,
2013-04-03 16:50:00,57.3,33.2,29.94,NNW,338,2.0,-999.0,33,-99.99,,,0.00,519.0,cwc,2013-04-03 22:50:00,
2013-04-03 16:55:00,57.6,33.1,29.93,ENE,75,7.0,-999.0,32,-99.99,,,0.00,519.0,cwc,2013-04-03 22:55:00,
2013-04-03 17:00:00,57.1,33.0,29.94,SSW,199,6.0,-999.0,33,-99.99,,,0.00,316.0,cwc,2013-04-03 23:00:00,
2013-04-03 17:05:00,57.0,33.2,29.94,SW,227,4.0,-999.0,34,-99.99,,,0.00,84.0,cwc,2013-04-03 23:05:00,
2013-04-03 17:10:00,56.4,33.0,29.93,SW,219,8.0,-999.0,35,-99.99,,,0.00,448.0,cwc,2013-04-03 23:10:00,
2013-04-03 17:15:00,56.1,32.3,29.93,SW,230,0.0,-999.0,34,-99.99,,,0.00,429.0,cwc,2013-04-03 23:15:00,
2013-04-03 17:20:00,56.3,32.5,29.93,SW,230,0.0,-999.0,34,-99.99,,,0.00,410.0,cwc,2013-04-03 23:20:00,
2013-04-03 17:25:00,56.6,32.8,29.93,SW,230,0.0,-999.0,34,-99.99,,,0.00,392.0,cwc,2013-04-03 23:25:00,
2013-04-03 17:30:00,57.1,33.0,29.93,SW,230,4.0,-999.0,33,-99.99,,,0.00,373.0,cwc,2013-04-03 23:30:00,
2013-04-03 17:35:00,57.5,33.4,29.93,SW,230,1.0,-999.0,33,-99.99,,,0.00,355.0,cwc,2013-04-03 23:35:00,
2013-04-03 17:40:00,57.8,33.3,29.93,SW,230,0.0,-999.0,32,-99.99,,,0.00,339.0,cwc,2013-04-03 23:40:00,
2013-04-03 17:45:00,58.0,33.5,29.93,SW,230,0.0,-999.0,32,-99.99,,,0.00,323.0,cwc,2013-04-03 23:45:00,
2013-04-03 17:50:00,58.1,33.6,29.93,SW,230,0.0,-999.0,32,-99.99,,,0.00,299.0,cwc,2013-04-03 23:50:00,
2013-04-03 18:00:00,58.4,33.9,29.93,SW,230,0.0,-999.0,32,-99.99,,,0.00,264.0,cwc,2013-04-04 00:00:00,
2013-04-03 18:05:00,58.7,33.9,29.93,SW,230,1.0,-999.0,31,-99.99,,,0.00,163.0,cwc,2013-04-04 00:05:00,
2013-04-03 18:10:00,58.3,33.5,29.93,SW,230,2.0,-999.0,31,-99.99,,,0.00,49.0,cwc,2013-04-04 00:10:00,
2013-04-03 18:15:00,57.5,32.7,29.93,SW,230,1.0,-999.0,31,-99.99,,,0.00,35.0,cwc,2013-04-04 00:15:00,
2013-04-03 18:20:00,57.1,32.3,29.94,SW,230,0.0,-999.0,31,-99.99,,,0.00,21.0,cwc,2013-04-04 00:20:00,
2013-04-03 18:25:00,56.8,32.3,29.94,SW,230,0.0,-999.0,32,-99.99,,,0.00,16.0,cwc,2013-04-04 00:25:00,
2013-04-03 18:30:00,56.5,32.0,29.95,SW,230,0.0,-999.0,32,-99.99,,,0.00,12.0,cwc,2013-04-04 00:30:00,
2013-04-03 18:35:00,56.2,31.7,29.96,NE,53,8.0,-999.0,32,-99.99,,,0.00,16.0,cwc,2013-04-04 00:35:00,
2013-04-03 18:40:00,55.7,32.7,29.96,NE,55,5.0,-999.0,36,-99.99,,,0.00,25.0,cwc,2013-04-04 00:40:00,
2013-04-03 18:45:00,55.0,32.3,29.95,NNE,29,3.0,-999.0,37,-99.99,,,0.00,23.0,cwc,2013-04-04 00:45:00,
2013-04-03 18:50:00,54.3,32.0,29.95,NNE,32,2.0,-999.0,38,-99.99,,,0.00,16.0,cwc,2013-04-04 00:50:00,
2013-04-03 18:55:00,53.9,31.6,29.96,NNE,32,4.0,-999.0,38,-99.99,,,0.00,16.0,cwc,2013-04-04 00:55:00,
2013-04-03 19:00:00,53.7,31.4,29.96,WSW,238,6.0,-999.0,38,-99.99,,,0.00,19.0,cwc,2013-04-04 01:00:00,
2013-04-03 19:05:00,53.5,31.2,29.96,SW,228,2.0,-999.0,38,-99.99,,,0.00,21.0,cwc,2013-04-04 01:05:00,
2013-04-03 19:10:00,53.4,31.1,29.96,SW,227,0.0,-999.0,38,-99.99,,,0.00,11.0,cwc,2013-04-04 01:10:00,
2013-04-03 19:15:00,53.2,30.9,29.96,SW,228,0.0,-999.0,38,-99.99,,,0.00,5.0,cwc,2013-04-04 01:15:00,
2013-04-03 19:20:00,53.0,31.0,29.96,SW,228,2.0,-999.0,39,-99.99,,,0.00,0.0,cwc,2013-04-04 01:20:00,
2013-04-03 19:25:00,52.8,30.8,29.95,SW,227,3.0,-999.0,39,-99.99,,,0.00,0.0,cwc,2013-04-04 01:25:00,
2013-04-03 19:30:00,52.6,30.6,29.96,SW,227,0.0,-999.0,39,-99.99,,,0.00,0.0,cwc,2013-04-04 01:30:00,
2013-04-03 19:35:00,52.4,30.4,29.96,SW,228,1.0,-999.0,39,-99.99,,,0.00,0.0,cwc,2013-04-04 01:35:00,
2013-04-03 19:40:00,51.7,30.1,29.96,SW,228,0.0,-999.0,40,-99.99,,,0.00,0.0,cwc,2013-04-04 01:40:00,
2013-04-03 19:45:00,51.0,29.8,29.96,SW,228,0.0,-999.0,41,-99.99,,,0.00,0.0,cwc,2013-04-04 01:45:00,
2013-04-03 19:50:00,50.5,29.3,29.97,SW,227,0.0,-999.0,41,-99.99,,,0.00,0.0,cwc,2013-04-04 01:50:00,
2013-04-03 19:55:00,50.1,29.2,29.97,SW,228,1.0,-999.0,42,-99.99,,,0.00,0.0,cwc,2013-04-04 01:55:00,
2013-04-03 20:00:00,49.9,29.4,29.97,SW,228,0.0,-999.0,43,-99.99,,,0.00,0.0,cwc,2013-04-04 02:00:00,
2013-04-03 20:05:00,49.7,29.2,29.97,SW,227,0.0,-999.0,43,-99.99,,,0.00,0.0,cwc,2013-04-04 02:05:00,
2013-04-03 20:10:00,49.4,28.9,29.97,SW,227,1.0,-999.0,43,-99.99,,,0.00,0.0,cwc,2013-04-04 02:10:00,
2013-04-03 20:15:00,49.4,28.9,29.98,SW,228,1.0,-999.0,43,-99.99,,,0.00,0.0,cwc,2013-04-04 02:15:00,
2013-04-03 20:20:00,49.2,29.0,29.98,SW,228,0.0,-999.0,44,-99.99,,,0.00,0.0,cwc,2013-04-04 02:20:00,
2013-04-03 20:25:00,48.7,28.2,29.98,SW,227,0.0,-999.0,43,-99.99,,,0.00,0.0,cwc,2013-04-04 02:25:00,
2013-04-03 20:30:00,48.2,28.0,29.98,SW,228,2.0,-999.0,44,-99.99,,,0.00,0.0,cwc,2013-04-04 02:30:00,
2013-04-03 20:35:00,47.9,27.7,29.98,SW,228,2.0,-999.0,44,-99.99,,,0.00,0.0,cwc,2013-04-04 02:35:00,
2013-04-03 20:40:00,47.7,27.5,29.99,SW,227,0.0,-999.0,44,-99.99,,,0.00,0.0,cwc,2013-04-04 02:40:00,
2013-04-03 20:45:00,47.4,27.2,29.99,SW,227,0.0,-999.0,44,-99.99,,,0.00,0.0,cwc,2013-04-04 02:45:00,
2013-04-03 20:50:00,47.0,27.2,30.00,SW,228,0.0,-999.0,45,-99.99,,,0.00,0.0,cwc,2013-04-04 02:50:00,
2013-04-03 20:55:00,46.7,26.9,30.00,SW,228,0.0,-999.0,45,-99.99,,,0.00,0.0,cwc,2013-04-04 02:55:00,
2013-04-03 21:00:00,46.4,26.6,30.00,SW,228,2.0,-999.0,45,-99.99,,,0.00,0.0,cwc,2013-04-04 03:00:00,
2013-04-03 21:05:00,46.3,26.9,30.00,SW,227,0.0,-999.0,46,-99.99,,,0.00,0.0,cwc,2013-04-04 03:05:00,
2013-04-03 21:10:00,46.2,26.4,30.01,SW,228,1.0,-999.0,45,-99.99,,,0.00,0.0,cwc,2013-04-04 03:10:00,
2013-04-03 21:15:00,46.1,26.3,30.01,SW,228,0.0,-999.0,45,-99.99,,,0.00,0.0,cwc,2013-04-04 03:15:00,
2013-04-03 21:20:00,46.0,26.2,30.01,SW,227,0.0,-999.0,45,-99.99,,,0.00,0.0,cwc,2013-04-04 03:20:00,
2013-04-03 21:25:00,45.5,25.7,30.02,SW,228,1.0,-999.0,45,-99.99,,,0.00,0.0,cwc,2013-04-04 03:25:00,
2013-04-03 21:30:00,45.1,25.7,30.02,SW,228,0.0,-999.0,46,-99.99,,,0.00,0.0,cwc,2013-04-04 03:30:00,
2013-04-03 21:45:00,45.4,25.6,30.02,SW,228,2.0,-999.0,45,-99.99,,,0.00,0.0,cwc,2013-04-04 03:45:00,
2013-04-03 21:50:00,46.1,26.3,30.03,SW,229,0.0,-999.0,45,-99.99,,,0.00,0.0,cwc,2013-04-04 03:50:00,
2013-04-03 21:55:00,46.4,26.2,30.03,SW,229,2.0,-999.0,44,-99.99,,,0.00,0.0,cwc,2013-04-04 03:55:00,
2013-04-03 22:00:00,46.1,25.9,30.03,SW,229,2.0,-999.0,44,-99.99,,,0.00,0.0,cwc,2013-04-04 04:00:00,
2013-04-03 22:05:00,45.7,25.9,30.04,SW,229,3.0,-999.0,45,-99.99,,,0.00,0.0,cwc,2013-04-04 04:05:00,
2013-04-03 22:10:00,46.0,26.2,30.04,SW,229,0.0,-999.0,45,-99.99,,,0.00,0.0,cwc,2013-04-04 04:10:00,
2013-04-03 22:15:00,46.2,26.4,30.04,SW,229,0.0,-999.0,45,-99.99,,,0.00,0.0,cwc,2013-04-04 04:15:00,
2013-04-03 22:20:00,46.2,26.4,30.04,SW,229,0.0,-999.0,45,-99.99,,,0.00,0.0,cwc,2013-04-04 04:20:00,
2013-04-03 22:25:00,46.1,26.3,30.04,SW,229,0.0,-999.0,45,-99.99,,,0.00,0.0,cwc,2013-04-04 04:25:00,
2013-04-03 22:30:00,46.0,26.2,30.04,SW,229,1.0,-999.0,45,-99.99,,,0.00,0.0,cwc,2013-04-04 04:30:00,
2013-04-03 22:35:00,46.1,26.3,30.05,SW,229,0.0,-999.0,45,-99.99,,,0.00,0.0,cwc,2013-04-04 04:35:00,
2013-04-03 22:40:00,46.1,26.3,30.05,SW,229,0.0,-999.0,45,-99.99,,,0.00,0.0,cwc,2013-04-04 04:40:00,
2013-04-03 22:45:00,46.0,26.2,30.05,SW,229,0.0,-999.0,45,-99.99,,,0.00,0.0,cwc,2013-04-04 04:45:00,
2013-04-03 22:50:00,46.1,26.3,30.05,SW,229,0.0,-999.0,45,-99.99,,,0.00,0.0,cwc,2013-04-04 04:50:00,
2013-04-03 23:00:00,46.0,26.2,30.05,SW,229,0.0,-999.0,45,-99.99,,,0.00,0.0,cwc,2013-04-04 05:00:00,
2013-04-03 23:05:00,45.6,26.2,30.05,SW,229,0.0,-999.0,46,-99.99,,,0.00,0.0,cwc,2013-04-04 05:05:00,
2013-04-03 23:10:00,45.4,26.0,30.05,SW,229,0.0,-999.0,46,-99.99,,,0.00,0.0,cwc,2013-04-04 05:10:00,
2013-04-03 23:15:00,45.2,25.8,30.06,SW,229,0.0,-999.0,46,-99.99,,,0.00,0.0,cwc,2013-04-04 05:15:00,
2013-04-03 23:25:00,43.9,25.2,30.05,SW,229,1.0,-999.0,48,-99.99,,,0.00,0.0,cwc,2013-04-04 05:25:00,
2013-04-03 23:30:00,43.2,24.8,30.05,SW,229,1.0,-999.0,49,-99.99,,,0.00,0.0,cwc,2013-04-04 05:30:00,
2013-04-03 23:35:00,42.6,24.2,30.06,SW,229,0.0,-999.0,49,-99.99,,,0.00,0.0,cwc,2013-04-04 05:35:00,
2013-04-03 23:45:00,41.7,23.7,30.06,SW,229,2.0,-999.0,50,-99.99,,,0.00,0.0,cwc,2013-04-04 05:45:00,
2013-04-03 23:50:00,41.0,23.4,30.06,SW,229,2.0,-999.0,51,-99.99,,,0.00,0.0,cwc,2013-04-04 05:50:00,
2013-04-03 23:55:00,40.7,23.1,30.06,SW,229,2.0,-999.0,51,-99.99,,,0.00,0.0,cwc,2013-04-04 05:55:00,